Time,TemperatureF,DewpointF,PressureIn,WindDirection,WindDirectionDegrees,WindSpeedMPH,WindSpeedGustMPH,Humidity,HourlyPrecipIn,Conditions,Clouds,dailyrainin,SoftwareType,DateUTC
2013-08-10 00:00:00,62.7,58.5,29.68,WSW,257,5.0,-999.0,86,0.00,,,0.66,Wunderground v.1.15,2013-08-10 04:00:00,
2013-08-10 00:05:00,62.6,58.7,29.68,WSW,257,5.0,-999.0,87,0.00,,,0.66,Wunderground v.1.15,2013-08-10 04:05:00,
2013-08-10 00:10:00,62.5,58.6,29.68,WSW,257,5.0,-999.0,87,0.00,,,0.00,Wunderground v.1.15,2013-08-10 04:10:00,
2013-08-10 00:15:00,62.4,58.5,29.68,WSW,257,5.0,-999.0,87,0.00,,,0.00,Wunderground v.1.15,2013-08-10 04:15:00,
2013-08-10 00:20:00,62.4,58.8,29.68,WSW,257,4.0,-999.0,88,0.00,,,0.00,Wunderground v.1.15,2013-08-10 04:20:00,
2013-08-10 00:25:00,62.3,58.7,29.68,WSW,257,4.0,-999.0,88,0.00,,,0.00,Wunderground v.1.15,2013-08-10 04:25:00,
2013-08-10 00:30:00,62.4,59.1,29.68,WSW,257,4.0,-999.0,89,0.00,,,0.00,Wunderground v.1.15,2013-08-10 04:30:00,
2013-08-10 00:35:00,62.3,59.0,29.68,WSW,257,5.0,-999.0,89,0.00,,,0.00,Wunderground v.1.15,2013-08-10 04:35:00,
2013-08-10 00:40:00,62.3,59.0,29.68,WSW,258,4.0,-999.0,89,0.00,,,0.00,Wunderground v.1.15,2013-08-10 04:40:00,
2013-08-10 00:50:00,62.3,59.0,29.69,WSW,257,4.0,-999.0,89,0.00,,,0.00,Wunderground v.1.15,2013-08-10 04:50:00,
2013-08-10 00:55:00,62.3,59.0,29.69,WSW,257,5.0,-999.0,89,0.00,,,0.00,Wunderground v.1.15,2013-08-10 04:55:00,
2013-08-10 01:00:00,62.4,59.1,29.69,WSW,257,5.0,-999.0,89,0.00,,,0.00,Wunderground v.1.15,2013-08-10 05:00:00,
2013-08-10 01:10:00,62.4,59.4,29.69,WSW,257,5.0,-999.0,90,0.00,,,0.00,Wunderground v.1.15,2013-08-10 05:10:00,
2013-08-10 01:20:00,62.5,59.5,29.69,WSW,258,5.0,-999.0,90,0.00,,,0.00,Wunderground v.1.15,2013-08-10 05:20:00,
2013-08-10 01:25:00,62.6,59.6,29.69,WSW,258,5.0,-999.0,90,0.00,,,0.00,Wunderground v.1.15,2013-08-10 05:25:00,
2013-08-10 01:30:00,62.5,59.5,29.69,WSW,258,5.0,-999.0,90,0.00,,,0.00,Wunderground v.1.15,2013-08-10 05:30:00,
2013-08-10 01:35:00,62.5,59.5,29.69,WSW,257,5.0,-999.0,90,0.00,,,0.00,Wunderground v.1.15,2013-08-10 05:35:00,
2013-08-10 01:40:00,62.5,59.5,29.69,WSW,257,5.0,-999.0,90,0.00,,,0.00,Wunderground v.1.15,2013-08-10 05:40:00,
2013-08-10 01:45:00,62.4,59.4,29.69,WSW,257,5.0,-999.0,90,0.00,,,0.00,Wunderground v.1.15,2013-08-10 05:45:00,
2013-08-10 01:55:00,62.4,59.4,29.69,WSW,257,5.0,-999.0,90,0.00,,,0.00,Wunderground v.1.15,2013-08-10 05:55:00,
2013-08-10 02:00:00,62.4,59.4,29.69,WSW,257,6.0,-999.0,90,0.00,,,0.00,Wunderground v.1.15,2013-08-10 06:00:00,
2013-08-10 02:10:00,62.6,59.6,29.70,West,259,6.0,-999.0,90,0.00,,,0.00,Wunderground v.1.15,2013-08-10 06:10:00,
2013-08-10 02:15:00,62.6,59.6,29.70,West,259,5.0,-999.0,90,0.00,,,0.00,Wunderground v.1.15,2013-08-10 06:15:00,
2013-08-10 02:25:00,62.7,59.7,29.70,West,260,6.0,-999.0,90,0.00,,,0.00,Wunderground v.1.15,2013-08-10 06:25:00,
2013-08-10 02:30:00,62.6,59.6,29.70,West,260,6.0,-999.0,90,0.00,,,0.00,Wunderground v.1.15,2013-08-10 06:30:00,
2013-08-10 02:35:00,62.5,59.5,29.70,West,260,5.0,-999.0,90,0.00,,,0.00,Wunderground v.1.15,2013-08-10 06:35:00,
2013-08-10 02:40:00,62.3,59.3,29.70,West,260,5.0,-999.0,90,0.00,,,0.00,Wunderground v.1.15,2013-08-10 06:40:00,
2013-08-10 02:45:00,62.2,59.5,29.70,West,260,5.0,-999.0,91,0.00,,,0.00,Wunderground v.1.15,2013-08-10 06:45:00,
2013-08-10 02:50:00,62.2,59.5,29.70,West,260,5.0,-999.0,91,0.00,,,0.00,Wunderground v.1.15,2013-08-10 06:50:00,
2013-08-10 02:55:00,62.4,59.4,29.70,West,260,5.0,-999.0,90,0.00,,,0.00,Wunderground v.1.15,2013-08-10 06:55:00,
2013-08-10 03:05:00,62.5,59.5,29.70,West,260,6.0,-999.0,90,0.00,,,0.00,Wunderground v.1.15,2013-08-10 07:05:00,
2013-08-10 03:10:00,62.5,59.5,29.70,West,260,5.0,-999.0,90,0.00,,,0.00,Wunderground v.1.15,2013-08-10 07:10:00,
2013-08-10 03:15:00,62.3,59.3,29.70,West,260,3.0,-999.0,90,0.00,,,0.00,Wunderground v.1.15,2013-08-10 07:15:00,
2013-08-10 03:20:00,62.2,59.2,29.70,West,260,2.0,-999.0,90,0.00,,,0.00,Wunderground v.1.15,2013-08-10 07:20:00,
2013-08-10 03:25:00,62.1,59.1,29.70,West,260,3.0,-999.0,90,0.00,,,0.00,Wunderground v.1.15,2013-08-10 07:25:00,
2013-08-10 03:30:00,62.3,59.3,29.71,West,260,4.0,-999.0,90,0.00,,,0.00,Wunderground v.1.15,2013-08-10 07:30:00,
2013-08-10 03:35:00,62.4,59.4,29.71,West,260,5.0,-999.0,90,0.00,,,0.00,Wunderground v.1.15,2013-08-10 07:35:00,
2013-08-10 03:40:00,62.5,59.5,29.70,West,260,5.0,-999.0,90,0.00,,,0.00,Wunderground v.1.15,2013-08-10 07:40:00,
2013-08-10 03:45:00,62.6,59.3,29.70,West,259,5.0,-999.0,89,0.00,,,0.00,Wunderground v.1.15,2013-08-10 07:45:00,
2013-08-10 03:50:00,62.7,59.1,29.71,West,259,5.0,-999.0,88,0.00,,,0.00,Wunderground v.1.15,2013-08-10 07:50:00,
2013-08-10 04:00:00,62.6,59.0,29.71,West,259,5.0,-999.0,88,0.00,,,0.00,Wunderground v.1.15,2013-08-10 08:00:00,
2013-08-10 04:10:00,62.6,59.0,29.71,West,261,4.0,-999.0,88,0.00,,,0.00,Wunderground v.1.15,2013-08-10 08:10:00,
2013-08-10 04:15:00,62.8,58.9,29.72,West,261,4.0,-999.0,87,0.00,,,0.00,Wunderground v.1.15,2013-08-10 08:15:00,
2013-08-10 04:20:00,62.9,59.0,29.72,West,261,4.0,-999.0,87,0.00,,,0.00,Wunderground v.1.15,2013-08-10 08:20:00,
2013-08-10 04:25:00,62.9,59.0,29.72,West,261,5.0,-999.0,87,0.00,,,0.00,Wunderground v.1.15,2013-08-10 08:25:00,
2013-08-10 04:35:00,62.8,58.9,29.72,West,261,3.0,-999.0,87,0.00,,,0.00,Wunderground v.1.15,2013-08-10 08:35:00,
2013-08-10 04:40:00,62.7,59.1,29.72,West,261,2.0,-999.0,88,0.00,,,0.00,Wunderground v.1.15,2013-08-10 08:40:00,
2013-08-10 04:45:00,62.7,59.1,29.72,West,261,3.0,-999.0,88,0.00,,,0.00,Wunderground v.1.15,2013-08-10 08:45:00,
2013-08-10 04:50:00,62.7,59.1,29.73,West,261,3.0,-999.0,88,0.00,,,0.00,Wunderground v.1.15,2013-08-10 08:50:00,
2013-08-10 04:55:00,62.6,59.3,29.73,West,261,3.0,-999.0,89,0.00,,,0.00,Wunderground v.1.15,2013-08-10 08:55:00,
2013-08-10 05:00:00,62.6,59.3,29.73,West,261,4.0,-999.0,89,0.00,,,0.00,Wunderground v.1.15,2013-08-10 09:00:00,
2013-08-10 05:10:00,62.3,59.3,29.73,West,261,3.0,-999.0,90,0.00,,,0.00,Wunderground v.1.15,2013-08-10 09:10:00,
2013-08-10 05:15:00,62.2,59.2,29.74,West,261,3.0,-999.0,90,0.00,,,0.00,Wunderground v.1.15,2013-08-10 09:15:00,
2013-08-10 05:20:00,62.1,59.4,29.73,West,261,3.0,-999.0,91,0.00,,,0.01,Wunderground v.1.15,2013-08-10 09:20:00,
2013-08-10 05:25:00,62.1,59.4,29.74,West,261,4.0,-999.0,91,0.00,,,0.01,Wunderground v.1.15,2013-08-10 09:25:00,
2013-08-10 05:30:00,62.0,59.3,29.74,West,261,4.0,-999.0,91,0.00,,,0.01,Wunderground v.1.15,2013-08-10 09:30:00,
2013-08-10 05:40:00,61.9,59.2,29.74,West,261,4.0,-999.0,91,0.00,,,0.01,Wunderground v.1.15,2013-08-10 09:40:00,
2013-08-10 05:45:00,61.9,59.5,29.74,West,261,4.0,-999.0,92,0.00,,,0.01,Wunderground v.1.15,2013-08-10 09:45:00,
2013-08-10 05:50:00,61.8,59.5,29.74,West,261,4.0,-999.0,92,0.00,,,0.01,Wunderground v.1.15,2013-08-10 09:50:00,
2013-08-10 05:55:00,61.7,59.4,29.74,West,261,2.0,-999.0,92,0.00,,,0.01,Wunderground v.1.15,2013-08-10 09:55:00,
2013-08-10 06:00:00,61.7,59.4,29.74,West,261,3.0,-999.0,92,0.00,,,0.01,Wunderground v.1.15,2013-08-10 10:00:00,
2013-08-10 06:10:00,61.5,59.2,29.74,West,261,3.0,-999.0,92,0.00,,,0.01,Wunderground v.1.15,2013-08-10 10:10:00,
2013-08-10 06:15:00,61.4,59.1,29.75,West,261,2.0,-999.0,92,0.00,,,0.01,Wunderground v.1.15,2013-08-10 10:15:00,
2013-08-10 06:20:00,61.4,59.4,29.75,West,261,3.0,-999.0,93,0.00,,,0.01,Wunderground v.1.15,2013-08-10 10:20:00,
2013-08-10 06:25:00,61.3,59.3,29.75,West,261,3.0,-999.0,93,0.00,,,0.01,Wunderground v.1.15,2013-08-10 10:25:00,
2013-08-10 06:30:00,61.3,59.3,29.75,West,261,3.0,-999.0,93,0.00,,,0.01,Wunderground v.1.15,2013-08-10 10:30:00,
2013-08-10 06:35:00,61.2,59.2,29.75,West,261,3.0,-999.0,93,0.00,,,0.01,Wunderground v.1.15,2013-08-10 10:35:00,
2013-08-10 06:45:00,61.1,59.1,29.75,West,261,3.0,-999.0,93,0.00,,,0.01,Wunderground v.1.15,2013-08-10 10:45:00,
2013-08-10 06:50:00,61.0,59.0,29.76,West,261,3.0,-999.0,93,0.00,,,0.01,Wunderground v.1.15,2013-08-10 10:50:00,
2013-08-10 06:55:00,61.0,59.0,29.76,West,261,3.0,-999.0,93,0.00,,,0.01,Wunderground v.1.15,2013-08-10 10:55:00,
2013-08-10 07:00:00,61.0,59.0,29.76,West,261,3.0,-999.0,93,0.00,,,0.01,Wunderground v.1.15,2013-08-10 11:00:00,
2013-08-10 07:10:00,61.1,59.4,29.76,West,261,2.0,-999.0,94,0.00,,,0.01,Wunderground v.1.15,2013-08-10 11:10:00,
2013-08-10 07:15:00,61.1,59.4,29.76,West,261,2.0,-999.0,94,0.00,,,0.01,Wunderground v.1.15,2013-08-10 11:15:00,
2013-08-10 07:20:00,61.1,59.4,29.76,West,261,3.0,-999.0,94,0.00,,,0.01,Wunderground v.1.15,2013-08-10 11:20:00,
2013-08-10 07:25:00,61.4,59.4,29.77,West,261,3.0,-999.0,93,0.00,,,0.01,Wunderground v.1.15,2013-08-10 11:25:00,
2013-08-10 07:30:00,61.6,59.6,29.77,West,261,4.0,-999.0,93,0.00,,,0.01,Wunderground v.1.15,2013-08-10 11:30:00,
2013-08-10 07:35:00,61.7,59.4,29.77,West,261,4.0,-999.0,92,0.00,,,0.01,Wunderground v.1.15,2013-08-10 11:35:00,
2013-08-10 07:40:00,62.0,59.3,29.77,West,261,4.0,-999.0,91,0.00,,,0.01,Wunderground v.1.15,2013-08-10 11:40:00,
2013-08-10 07:50:00,62.0,58.7,29.77,West,261,4.0,-999.0,89,0.00,,,0.01,Wunderground v.1.15,2013-08-10 11:50:00,
2013-08-10 07:55:00,62.1,58.5,29.77,West,261,3.0,-999.0,88,0.00,,,0.01,Wunderground v.1.15,2013-08-10 11:55:00,
2013-08-10 08:00:00,62.5,58.3,29.77,West,261,4.0,-999.0,86,0.00,,,0.01,Wunderground v.1.15,2013-08-10 12:00:00,
2013-08-10 08:10:00,63.0,57.4,29.78,West,261,4.0,-999.0,82,0.00,,,0.01,Wunderground v.1.15,2013-08-10 12:10:00,
2013-08-10 08:20:00,63.1,57.2,29.77,West,261,4.0,-999.0,81,0.00,,,0.01,Wunderground v.1.15,2013-08-10 12:20:00,
2013-08-10 08:25:00,63.2,57.6,29.78,West,261,4.0,-999.0,82,0.00,,,0.01,Wunderground v.1.15,2013-08-10 12:25:00,
2013-08-10 08:30:00,63.4,57.5,29.78,West,261,4.0,-999.0,81,0.00,,,0.01,Wunderground v.1.15,2013-08-10 12:30:00,
2013-08-10 08:35:00,63.6,58.0,29.78,West,261,4.0,-999.0,82,0.00,,,0.01,Wunderground v.1.15,2013-08-10 12:35:00,
2013-08-10 08:40:00,63.7,57.8,29.78,West,261,4.0,-999.0,81,0.00,,,0.01,Wunderground v.1.15,2013-08-10 12:40:00,
2013-08-10 08:45:00,63.9,58.0,29.78,West,261,5.0,-999.0,81,0.00,,,0.01,Wunderground v.1.15,2013-08-10 12:45:00,
2013-08-10 08:55:00,64.1,57.1,29.78,West,261,5.0,-999.0,78,0.00,,,0.01,Wunderground v.1.15,2013-08-10 12:55:00,
2013-08-10 09:00:00,64.4,57.0,29.78,West,261,4.0,-999.0,77,0.00,,,0.01,Wunderground v.1.15,2013-08-10 13:00:00,
2013-08-10 09:10:00,64.8,56.3,29.78,West,261,5.0,-999.0,74,0.00,,,0.01,Wunderground v.1.15,2013-08-10 13:10:00,
2013-08-10 09:15:00,65.0,55.8,29.78,West,261,6.0,-999.0,72,0.00,,,0.01,Wunderground v.1.15,2013-08-10 13:15:00,
2013-08-10 09:25:00,65.6,53.9,29.78,WNW,284,5.0,-999.0,66,0.00,,,0.01,Wunderground v.1.15,2013-08-10 13:25:00,
2013-08-10 09:30:00,65.7,53.6,29.78,WNW,284,5.0,-999.0,65,0.00,,,0.01,Wunderground v.1.15,2013-08-10 13:30:00,
2013-08-10 09:35:00,66.0,54.3,29.78,West,273,5.0,-999.0,66,0.00,,,0.01,Wunderground v.1.15,2013-08-10 13:35:00,
2013-08-10 09:40:00,66.1,53.1,29.78,West,273,5.0,-999.0,63,0.00,,,0.01,Wunderground v.1.15,2013-08-10 13:40:00,
2013-08-10 09:45:00,66.2,54.1,29.78,West,281,6.0,-999.0,65,0.00,,,0.01,Wunderground v.1.15,2013-08-10 13:45:00,
2013-08-10 09:50:00,66.2,51.9,29.79,West,279,7.0,-999.0,60,0.00,,,0.01,Wunderground v.1.15,2013-08-10 13:50:00,
2013-08-10 10:00:00,66.8,52.9,29.79,West,277,6.0,-999.0,61,0.00,,,0.01,Wunderground v.1.15,2013-08-10 14:00:00,
2013-08-10 10:10:00,66.6,51.8,29.79,WSW,258,6.0,-999.0,59,0.00,,,0.01,Wunderground v.1.15,2013-08-10 14:10:00,
2013-08-10 10:15:00,66.4,52.1,29.79,WNW,289,7.0,-999.0,60,0.00,,,0.01,Wunderground v.1.15,2013-08-10 14:15:00,
2013-08-10 10:20:00,66.6,53.2,29.79,West,279,6.0,-999.0,62,0.00,,,0.01,Wunderground v.1.15,2013-08-10 14:20:00,
2013-08-10 10:30:00,66.5,53.1,29.79,West,269,7.0,-999.0,62,0.00,,,0.01,Wunderground v.1.15,2013-08-10 14:30:00,
2013-08-10 10:35:00,66.4,52.1,29.79,West,269,6.0,-999.0,60,0.00,,,0.01,Wunderground v.1.15,2013-08-10 14:35:00,
2013-08-10 10:40:00,66.3,50.6,29.80,West,275,7.0,-999.0,57,0.00,,,0.01,Wunderground v.1.15,2013-08-10 14:40:00,
2013-08-10 10:45:00,66.4,50.7,29.80,West,272,8.0,-999.0,57,0.00,,,0.01,Wunderground v.1.15,2013-08-10 14:45:00,
2013-08-10 10:50:00,66.6,51.4,29.80,WSW,254,7.0,-999.0,58,0.00,,,0.01,Wunderground v.1.15,2013-08-10 14:50:00,
2013-08-10 10:55:00,66.7,50.0,29.80,NW,308,7.0,-999.0,55,0.00,,,0.01,Wunderground v.1.15,2013-08-10 14:55:00,
2013-08-10 11:00:00,66.8,50.1,29.80,WNW,294,6.0,-999.0,55,0.00,,,0.01,Wunderground v.1.15,2013-08-10 15:00:00,
2013-08-10 11:10:00,66.8,50.6,29.80,WSW,257,7.0,-999.0,56,0.00,,,0.01,Wunderground v.1.15,2013-08-10 15:10:00,
2013-08-10 11:15:00,66.8,51.1,29.80,WNW,290,8.0,-999.0,57,0.00,,,0.01,Wunderground v.1.15,2013-08-10 15:15:00,
2013-08-10 11:20:00,66.8,51.1,29.80,WNW,293,7.0,-999.0,57,0.00,,,0.01,Wunderground v.1.15,2013-08-10 15:20:00,
2013-08-10 11:25:00,66.5,49.8,29.80,West,261,7.0,-999.0,55,0.00,,,0.01,Wunderground v.1.15,2013-08-10 15:25:00,
2013-08-10 11:30:00,66.6,50.9,29.80,West,264,6.0,-999.0,57,0.00,,,0.01,Wunderground v.1.15,2013-08-10 15:30:00,
2013-08-10 11:40:00,67.1,51.4,29.80,West,273,6.0,-999.0,57,0.00,,,0.01,Wunderground v.1.15,2013-08-10 15:40:00,
2013-08-10 11:45:00,67.4,51.6,29.80,West,259,6.0,-999.0,57,0.00,,,0.01,Wunderground v.1.15,2013-08-10 15:45:00,
2013-08-10 11:50:00,67.8,52.9,29.80,West,273,6.0,-999.0,59,0.00,,,0.01,Wunderground v.1.15,2013-08-10 15:50:00,
2013-08-10 11:55:00,68.1,51.3,29.80,NW,315,7.0,-999.0,55,0.00,,,0.01,Wunderground v.1.15,2013-08-10 15:55:00,
2013-08-10 12:00:00,67.8,51.0,29.80,WNW,284,8.0,-999.0,55,0.00,,,0.01,Wunderground v.1.15,2013-08-10 16:00:00,
2013-08-10 12:10:00,67.7,51.4,29.80,WNW,300,7.0,-999.0,56,0.00,,,0.01,Wunderground v.1.15,2013-08-10 16:10:00,
2013-08-10 12:15:00,67.9,51.6,29.80,WNW,286,7.0,-999.0,56,0.00,,,0.01,Wunderground v.1.15,2013-08-10 16:15:00,
2013-08-10 12:20:00,68.3,52.5,29.80,WNW,288,6.0,-999.0,57,0.00,,,0.01,Wunderground v.1.15,2013-08-10 16:20:00,
2013-08-10 12:25:00,68.4,52.1,29.80,NW,304,6.0,-999.0,56,0.00,,,0.01,Wunderground v.1.15,2013-08-10 16:25:00,
2013-08-10 12:30:00,68.8,52.5,29.79,NW,323,7.0,-999.0,56,0.00,,,0.01,Wunderground v.1.15,2013-08-10 16:30:00,
2013-08-10 12:35:00,68.9,52.6,29.79,NW,311,6.0,-999.0,56,0.00,,,0.01,Wunderground v.1.15,2013-08-10 16:35:00,
2013-08-10 12:45:00,69.0,53.1,29.80,WNW,301,8.0,-999.0,57,0.00,,,0.01,Wunderground v.1.15,2013-08-10 16:45:00,
2013-08-10 12:50:00,69.0,52.6,29.80,WSW,255,7.0,-999.0,56,0.00,,,0.01,Wunderground v.1.15,2013-08-10 16:50:00,
2013-08-10 12:55:00,68.8,52.0,29.79,West,278,6.0,-999.0,55,0.00,,,0.01,Wunderground v.1.15,2013-08-10 16:55:00,
2013-08-10 13:00:00,69.1,53.7,29.80,West,276,6.0,-999.0,58,0.00,,,0.01,Wunderground v.1.15,2013-08-10 17:00:00,
2013-08-10 13:10:00,69.5,54.1,29.80,West,269,7.0,-999.0,58,0.00,,,0.01,Wunderground v.1.15,2013-08-10 17:10:00,
2013-08-10 13:20:00,70.1,53.2,29.79,NW,311,7.0,-999.0,55,0.00,,,0.01,Wunderground v.1.15,2013-08-10 17:20:00,
2013-08-10 13:25:00,70.3,52.9,29.79,WNW,297,7.0,-999.0,54,0.00,,,0.01,Wunderground v.1.15,2013-08-10 17:25:00,
2013-08-10 13:30:00,70.1,51.1,29.79,WNW,296,8.0,-999.0,51,0.00,,,0.01,Wunderground v.1.15,2013-08-10 17:30:00,
2013-08-10 13:35:00,70.1,51.7,29.80,West,262,8.0,-999.0,52,0.00,,,0.01,Wunderground v.1.15,2013-08-10 17:35:00,
2013-08-10 13:40:00,69.9,52.5,29.79,West,269,9.0,-999.0,54,0.00,,,0.01,Wunderground v.1.15,2013-08-10 17:40:00,
2013-08-10 13:45:00,69.9,52.5,29.79,West,278,10.0,-999.0,54,0.00,,,0.01,Wunderground v.1.15,2013-08-10 17:45:00,
2013-08-10 13:50:00,69.8,52.9,29.79,West,263,10.0,-999.0,55,0.00,,,0.01,Wunderground v.1.15,2013-08-10 17:50:00,
2013-08-10 13:55:00,69.8,52.4,29.79,West,265,10.0,-999.0,54,0.00,,,0.01,Wunderground v.1.15,2013-08-10 17:55:00,
2013-08-10 14:00:00,69.9,53.0,29.79,WNW,284,10.0,-999.0,55,0.00,,,0.01,Wunderground v.1.15,2013-08-10 18:00:00,
2013-08-10 14:10:00,69.9,53.0,29.79,West,265,9.0,-999.0,55,0.00,,,0.01,Wunderground v.1.15,2013-08-10 18:10:00,
2013-08-10 14:15:00,70.3,53.4,29.79,NW,311,8.0,-999.0,55,0.00,,,0.01,Wunderground v.1.15,2013-08-10 18:15:00,
2013-08-10 14:25:00,70.6,52.6,29.79,NW,312,9.0,-999.0,53,0.00,,,0.01,Wunderground v.1.15,2013-08-10 18:25:00,
2013-08-10 14:30:00,70.8,53.8,29.79,West,268,8.0,-999.0,55,0.00,,,0.01,Wunderground v.1.15,2013-08-10 18:30:00,
2013-08-10 14:35:00,70.7,53.7,29.79,WNW,302,8.0,-999.0,55,0.00,,,0.01,Wunderground v.1.15,2013-08-10 18:35:00,
2013-08-10 14:40:00,71.0,53.0,29.79,West,279,7.0,-999.0,53,0.00,,,0.01,Wunderground v.1.15,2013-08-10 18:40:00,
2013-08-10 14:45:00,70.8,53.8,29.79,WNW,293,8.0,-999.0,55,0.00,,,0.01,Wunderground v.1.15,2013-08-10 18:45:00,
2013-08-10 14:50:00,70.9,52.9,29.79,WNW,286,7.0,-999.0,53,0.00,,,0.01,Wunderground v.1.15,2013-08-10 18:50:00,
2013-08-10 14:55:00,70.6,53.1,29.79,NW,311,7.0,-999.0,54,0.00,,,0.01,Wunderground v.1.15,2013-08-10 18:55:00,
2013-08-10 15:05:00,70.8,53.8,29.79,NW,311,6.0,-999.0,55,0.00,,,0.01,Wunderground v.1.15,2013-08-10 19:05:00,
2013-08-10 15:10:00,70.8,53.3,29.79,NW,318,8.0,-999.0,54,0.00,,,0.01,Wunderground v.1.15,2013-08-10 19:10:00,
2013-08-10 15:15:00,70.9,53.9,29.78,NW,326,8.0,-999.0,55,0.00,,,0.01,Wunderground v.1.15,2013-08-10 19:15:00,
2013-08-10 15:20:00,71.4,53.9,29.79,West,269,7.0,-999.0,54,0.00,,,0.01,Wunderground v.1.15,2013-08-10 19:20:00,
2013-08-10 15:30:00,71.1,53.1,29.79,NW,306,7.0,-999.0,53,0.00,,,0.01,Wunderground v.1.15,2013-08-10 19:30:00,
2013-08-10 15:35:00,70.5,53.1,29.79,NNW,339,7.0,-999.0,54,0.00,,,0.01,Wunderground v.1.15,2013-08-10 19:35:00,
2013-08-10 15:40:00,70.8,53.8,29.79,West,268,7.0,-999.0,55,0.00,,,0.01,Wunderground v.1.15,2013-08-10 19:40:00,
2013-08-10 15:45:00,70.6,53.6,29.79,West,275,7.0,-999.0,55,0.00,,,0.01,Wunderground v.1.15,2013-08-10 19:45:00,
2013-08-10 15:50:00,70.7,53.2,29.79,WNW,287,7.0,-999.0,54,0.00,,,0.01,Wunderground v.1.15,2013-08-10 19:50:00,
2013-08-10 15:55:00,71.0,54.0,29.78,NW,316,6.0,-999.0,55,0.00,,,0.01,Wunderground v.1.15,2013-08-10 19:55:00,
2013-08-10 16:00:00,71.0,53.0,29.79,NW,305,6.0,-999.0,53,0.00,,,0.01,Wunderground v.1.15,2013-08-10 20:00:00,
2013-08-10 16:10:00,70.8,53.3,29.79,West,271,7.0,-999.0,54,0.00,,,0.01,Wunderground v.1.15,2013-08-10 20:10:00,
2013-08-10 16:15:00,70.9,54.4,29.79,NW,312,7.0,-999.0,56,0.00,,,0.01,Wunderground v.1.15,2013-08-10 20:15:00,
2013-08-10 16:20:00,70.8,53.8,29.79,WNW,302,7.0,-999.0,55,0.00,,,0.01,Wunderground v.1.15,2013-08-10 20:20:00,
2013-08-10 16:25:00,71.2,54.7,29.79,WNW,300,7.0,-999.0,56,0.00,,,0.01,Wunderground v.1.15,2013-08-10 20:25:00,
2013-08-10 16:35:00,70.6,53.6,29.79,WNW,283,7.0,-999.0,55,0.00,,,0.01,Wunderground v.1.15,2013-08-10 20:35:00,
2013-08-10 16:40:00,70.9,53.4,29.79,WNW,298,6.0,-999.0,54,0.00,,,0.01,Wunderground v.1.15,2013-08-10 20:40:00,
2013-08-10 16:45:00,70.7,54.7,29.79,WNW,293,6.0,-999.0,57,0.00,,,0.01,Wunderground v.1.15,2013-08-10 20:45:00,
2013-08-10 16:50:00,70.7,54.7,29.79,NW,314,7.0,-999.0,57,0.00,,,0.01,Wunderground v.1.15,2013-08-10 20:50:00,
2013-08-10 16:55:00,70.4,54.9,29.79,WNW,300,6.0,-999.0,58,0.00,,,0.01,Wunderground v.1.15,2013-08-10 20:55:00,
2013-08-10 17:00:00,70.1,55.1,29.79,NW,316,6.0,-999.0,59,0.00,,,0.01,Wunderground v.1.15,2013-08-10 21:00:00,
2013-08-10 17:10:00,70.1,55.1,29.79,WNW,299,8.0,-999.0,59,0.00,,,0.01,Wunderground v.1.15,2013-08-10 21:10:00,
2013-08-10 17:15:00,69.8,55.3,29.79,NW,311,8.0,-999.0,60,0.00,,,0.01,Wunderground v.1.15,2013-08-10 21:15:00,
2013-08-10 17:20:00,69.6,55.6,29.79,NW,311,6.0,-999.0,61,0.00,,,0.01,Wunderground v.1.15,2013-08-10 21:20:00,
2013-08-10 17:25:00,70.0,55.9,29.79,NW,313,4.0,-999.0,61,0.00,,,0.01,Wunderground v.1.15,2013-08-10 21:25:00,
2013-08-10 17:30:00,70.0,55.0,29.79,NW,312,5.0,-999.0,59,0.00,,,0.01,Wunderground v.1.15,2013-08-10 21:30:00,
2013-08-10 17:40:00,69.0,55.0,29.80,WNW,292,5.0,-999.0,61,0.00,,,0.01,Wunderground v.1.15,2013-08-10 21:40:00,
2013-08-10 17:45:00,68.9,55.3,29.79,WNW,302,5.0,-999.0,62,0.00,,,0.01,Wunderground v.1.15,2013-08-10 21:45:00,
2013-08-10 17:50:00,68.9,55.8,29.79,NW,304,5.0,-999.0,63,0.00,,,0.01,Wunderground v.1.15,2013-08-10 21:50:00,
2013-08-10 17:55:00,68.9,55.8,29.79,NW,315,6.0,-999.0,63,0.00,,,0.01,Wunderground v.1.15,2013-08-10 21:55:00,
2013-08-10 18:00:00,68.7,55.6,29.79,NW,315,5.0,-999.0,63,0.00,,,0.01,Wunderground v.1.15,2013-08-10 22:00:00,
2013-08-10 18:10:00,69.1,56.4,29.79,NW,323,3.0,-999.0,64,0.00,,,0.01,Wunderground v.1.15,2013-08-10 22:10:00,
2013-08-10 18:15:00,69.2,56.1,29.79,NW,313,5.0,-999.0,63,0.00,,,0.01,Wunderground v.1.15,2013-08-10 22:15:00,
2013-08-10 18:20:00,69.1,56.0,29.79,NW,314,5.0,-999.0,63,0.00,,,0.01,Wunderground v.1.15,2013-08-10 22:20:00,
2013-08-10 18:25:00,68.7,56.5,29.79,NW,314,4.0,-999.0,65,0.00,,,0.01,Wunderground v.1.15,2013-08-10 22:25:00,
2013-08-10 18:30:00,68.5,56.3,29.79,NW,314,3.0,-999.0,65,0.00,,,0.01,Wunderground v.1.15,2013-08-10 22:30:00,
2013-08-10 18:35:00,68.9,56.6,29.79,NW,309,3.0,-999.0,65,0.00,,,0.01,Wunderground v.1.15,2013-08-10 22:35:00,
2013-08-10 18:45:00,68.6,56.4,29.79,NW,309,3.0,-999.0,65,0.00,,,0.01,Wunderground v.1.15,2013-08-10 22:45:00,
2013-08-10 18:50:00,68.6,56.4,29.80,NW,309,4.0,-999.0,65,0.00,,,0.01,Wunderground v.1.15,2013-08-10 22:50:00,
2013-08-10 18:55:00,68.5,56.7,29.80,NW,306,4.0,-999.0,66,0.00,,,0.01,Wunderground v.1.15,2013-08-10 22:55:00,
2013-08-10 19:00:00,68.3,56.5,29.80,NW,310,5.0,-999.0,66,0.00,,,0.01,Wunderground v.1.15,2013-08-10 23:00:00,
2013-08-10 19:10:00,67.9,56.1,29.80,NW,309,3.0,-999.0,66,0.00,,,0.01,Wunderground v.1.15,2013-08-10 23:10:00,
2013-08-10 19:15:00,67.6,56.2,29.80,NW,309,1.0,-999.0,67,0.00,,,0.01,Wunderground v.1.15,2013-08-10 23:15:00,
2013-08-10 19:20:00,67.6,56.7,29.80,NW,309,1.0,-999.0,68,0.00,,,0.01,Wunderground v.1.15,2013-08-10 23:20:00,
2013-08-10 19:25:00,67.6,57.1,29.80,NW,309,1.0,-999.0,69,0.00,,,0.01,Wunderground v.1.15,2013-08-10 23:25:00,
2013-08-10 19:30:00,67.5,56.6,29.80,NW,309,2.0,-999.0,68,0.00,,,0.01,Wunderground v.1.15,2013-08-10 23:30:00,
2013-08-10 19:35:00,67.2,56.7,29.80,NW,309,3.0,-999.0,69,0.00,,,0.01,Wunderground v.1.15,2013-08-10 23:35:00,
2013-08-10 19:40:00,66.8,56.3,29.80,NW,309,2.0,-999.0,69,0.00,,,0.01,Wunderground v.1.15,2013-08-10 23:40:00,
2013-08-10 19:50:00,66.2,56.5,29.80,NW,309,1.0,-999.0,71,0.00,,,0.01,Wunderground v.1.15,2013-08-10 23:50:00,
2013-08-10 19:55:00,65.9,57.0,29.80,NW,309,0.0,-999.0,73,0.00,,,0.01,Wunderground v.1.15,2013-08-10 23:55:00,
2013-08-10 20:00:00,65.7,56.8,29.80,NW,309,0.0,-999.0,73,0.00,,,0.01,Wunderground v.1.15,2013-08-11 00:00:00,
2013-08-10 20:10:00,65.2,56.7,29.80,NW,309,1.0,-999.0,74,0.00,,,0.01,Wunderground v.1.15,2013-08-11 00:10:00,
2013-08-10 20:20:00,64.7,56.6,29.80,NW,309,1.0,-999.0,75,0.00,,,0.01,Wunderground v.1.15,2013-08-11 00:20:00,
2013-08-10 20:25:00,64.6,56.5,29.80,NW,309,1.0,-999.0,75,0.00,,,0.01,Wunderground v.1.15,2013-08-11 00:25:00,
2013-08-10 20:30:00,64.5,56.8,29.80,NW,309,0.0,-999.0,76,0.00,,,0.01,Wunderground v.1.15,2013-08-11 00:30:00,
2013-08-10 20:35:00,64.4,56.7,29.80,NW,309,0.0,-999.0,76,0.00,,,0.01,Wunderground v.1.15,2013-08-11 00:35:00,
2013-08-10 20:40:00,64.3,56.6,29.80,NW,309,0.0,-999.0,76,0.00,,,0.01,Wunderground v.1.15,2013-08-11 00:40:00,
2013-08-10 20:45:00,64.2,56.5,29.80,NW,309,1.0,-999.0,76,0.00,,,0.01,Wunderground v.1.15,2013-08-11 00:45:00,
2013-08-10 20:55:00,64.3,56.6,29.81,NW,309,2.0,-999.0,76,0.00,,,0.01,Wunderground v.1.15,2013-08-11 00:55:00,
2013-08-10 21:00:00,64.3,56.6,29.81,NW,309,2.0,-999.0,76,0.00,,,0.01,Wunderground v.1.15,2013-08-11 01:00:00,
2013-08-10 21:10:00,64.3,56.9,29.81,NW,309,1.0,-999.0,77,0.00,,,0.01,Wunderground v.1.15,2013-08-11 01:10:00,
2013-08-10 21:15:00,64.4,57.0,29.82,NW,309,1.0,-999.0,77,0.00,,,0.01,Wunderground v.1.15,2013-08-11 01:15:00,
2013-08-10 21:25:00,63.8,57.2,29.82,NW,309,2.0,-999.0,79,0.00,,,0.01,Wunderground v.1.15,2013-08-11 01:25:00,
2013-08-10 21:30:00,63.8,57.2,29.82,NW,309,2.0,-999.0,79,0.00,,,0.01,Wunderground v.1.15,2013-08-11 01:30:00,
2013-08-10 21:35:00,63.6,57.7,29.82,NW,309,2.0,-999.0,81,0.00,,,0.01,Wunderground v.1.15,2013-08-11 01:35:00,
2013-08-10 21:40:00,63.3,58.0,29.82,NW,309,2.0,-999.0,83,0.00,,,0.01,Wunderground v.1.15,2013-08-11 01:40:00,
2013-08-10 21:45:00,62.9,57.7,29.82,NW,309,2.0,-999.0,83,0.00,,,0.01,Wunderground v.1.15,2013-08-11 01:45:00,
2013-08-10 21:50:00,62.9,57.3,29.82,NW,309,1.0,-999.0,82,0.00,,,0.01,Wunderground v.1.15,2013-08-11 01:50:00,
2013-08-10 22:00:00,62.9,57.0,29.82,NW,309,0.0,-999.0,81,0.00,,,0.01,Wunderground v.1.15,2013-08-11 02:00:00,
2013-08-10 22:10:00,62.8,56.9,29.83,NW,309,2.0,-999.0,81,0.00,,,0.01,Wunderground v.1.15,2013-08-11 02:10:00,
2013-08-10 22:15:00,62.6,56.7,29.83,NW,309,2.0,-999.0,81,0.00,,,0.01,Wunderground v.1.15,2013-08-11 02:15:00,
2013-08-10 22:20:00,62.4,56.8,29.83,NW,309,2.0,-999.0,82,0.00,,,0.01,Wunderground v.1.15,2013-08-11 02:20:00,
2013-08-10 22:30:00,61.8,56.6,29.82,NW,309,2.0,-999.0,83,0.00,,,0.01,Wunderground v.1.15,2013-08-11 02:30:00,
2013-08-10 22:35:00,61.8,56.6,29.82,NW,309,1.0,-999.0,83,0.00,,,0.01,Wunderground v.1.15,2013-08-11 02:35:00,
2013-08-10 22:40:00,61.6,56.4,29.82,NW,309,1.0,-999.0,83,0.00,,,0.01,Wunderground v.1.15,2013-08-11 02:40:00,
2013-08-10 22:45:00,61.4,56.5,29.83,NW,309,2.0,-999.0,84,0.00,,,0.01,Wunderground v.1.15,2013-08-11 02:45:00,
2013-08-10 22:50:00,61.1,56.6,29.82,NW,309,2.0,-999.0,85,0.00,,,0.01,Wunderground v.1.15,2013-08-11 02:50:00,
2013-08-10 22:55:00,60.8,56.3,29.82,NW,309,2.0,-999.0,85,0.00,,,0.01,Wunderground v.1.15,2013-08-11 02:55:00,
2013-08-10 23:00:00,60.8,56.3,29.82,NW,309,2.0,-999.0,85,0.00,,,0.01,Wunderground v.1.15,2013-08-11 03:00:00,
2013-08-10 23:10:00,60.9,56.4,29.82,NW,309,1.0,-999.0,85,0.00,,,0.01,Wunderground v.1.15,2013-08-11 03:10:00,
2013-08-10 23:15:00,60.9,56.4,29.82,NW,309,1.0,-999.0,85,0.00,,,0.01,Wunderground v.1.15,2013-08-11 03:15:00,
2013-08-10 23:20:00,60.9,56.4,29.82,NW,309,1.0,-999.0,85,0.00,,,0.01,Wunderground v.1.15,2013-08-11 03:20:00,
2013-08-10 23:25:00,60.7,55.8,29.82,NW,309,1.0,-999.0,84,0.00,,,0.01,Wunderground v.1.15,2013-08-11 03:25:00,
2013-08-10 23:35:00,60.6,55.7,29.82,NW,309,1.0,-999.0,84,0.00,,,0.01,Wunderground v.1.15,2013-08-11 03:35:00,
2013-08-10 23:45:00,60.8,55.9,29.82,NW,309,0.0,-999.0,84,0.00,,,0.01,Wunderground v.1.15,2013-08-11 03:45:00,
2013-08-10 23:55:00,59.9,55.1,29.82,NW,309,1.0,-999.0,84,0.00,,,0.01,Wunderground v.1.15,2013-08-11 03:55:00,